Wind_Speed
62 61 60 59 57 56 56 55 54 53 51 49 48 48 48 48 47 47 47 47 45 44 43 42 36 36 38 32 28 26 21 21 20 21 24 24 24 28 32 36 35 35 42 43 48 51 54 51 52 55 54 54 58 61
60 61 60 59 58 56 55 54 52 50 49 49 50 50 49 48 46 46 45 45 41 41 40 35 31 32 35 30 20 22 19 20 19 20 22 22 23 26 27 30 35 44 46 53 55 55 57 54 53 56 55 55 60 66
60 59 59 57 56 55 55 53 53 52 51 50 49 49 48 47 45 41 42 42 43 37 33 30 29 29 31 25 17 19 15 20 18 19 22 23 25 28 29 31 38 44 48 53 51 53 56 54 49 55 55 56 62 70
58 58 57 56 56 56 55 54 53 51 50 50 48 47 45 42 42 39 38 40 40 34 27 26 25 27 25 24 17 18 16 20 19 20 21 22 23 28 32 35 41 45 47 51 54 55 52 49 48 54 56 57 63 72
54 56 57 54 54 55 54 53 51 50 50 48 46 44 43 40 38 39 38 35 33 28 27 22 22 24 20 21 16 17 17 21 19 19 20 21 24 26 31 37 43 45 46 51 53 51 47 49 51 53 58 59 65 74
51 52 53 52 52 53 52 50 48 48 47 46 44 43 40 37 34 36 37 30 24 23 25 21 19 19 17 15 15 16 18 19 18 18 18 20 24 27 30 34 36 43 46 47 45 45 41 45 48 52 57 60 65 72
46 47 47 46 46 47 46 46 46 45 43 42 40 38 35 31 30 32 32 25 22 19 18 18 16 14 14 13 12 14 18 13 14 15 16 19 23 26 28 31 34 40 43 39 38 43 44 48 51 53 57 59 64 70
42 42 41 42 42 41 41 41 41 40 38 37 35 32 29 27 27 27 23 23 19 16 14 14 13 12 12 13 14 16 12 11 13 13 14 16 19 24 26 28 31 33 35 33 34 39 44 47 50 53 57 59 63 69
35 35 36 36 36 36 37 37 36 35 33 31 29 27 25 25 23 19 20 18 16 15 14 11 12 12 14 15 13 13 15 16 15 14 13 13 14 19 22 23 25 24 21 24 31 35 42 47 49 51 55 57 59 62
30 31 31 31 31 32 33 33 32 29 27 26 24 24 24 20 18 19 17 15 14 14 9 10 10 12 15 15 17 17 18 17 16 15 13 12 13 13 14 17 19 22 25 32 32 36 40 45 48 50 52 54 56 57
27 27 27 28 28 29 28 27 25 26 27 26 26 23 19 19 18 16 14 13 12 8 8 7 9 12 15 15 17 19 19 20 21 20 21 22 23 22 23 24 25 26 27 30 33 36 39 41 45 48 50 51 54 56
28 28 28 27 26 26 25 25 27 27 26 24 22 21 21 19 18 15 14 11 9 9 7 7 10 13 15 16 15 15 15 18 19 21 22 23 21 21 21 20 19 20 22 25 28 31 34 38 42 46 48 50 52 55
27 27 26 25 25 25 26 25 26 25 25 23 22 22 19 18 16 16 14 12 11 8 8 10 11 11 14 15 16 17 19 18 17 17 16 17 16 16 16 17 18 20 22 24 26 30 33 36 39 44 47 49 52 54
24 24 24 25 26 24 24 25 26 25 24 24 24 22 21 18 19 16 16 14 14 15 16 16 15 15 14 16 16 17 18 17 17 17 16 16 16 17 18 19 20 22 23 25 27 30 32 35 37 41 44 47 51 54
23 24 25 24 24 25 27 26 26 26 27 26 24 24 23 21 19 18 17 17 18 18 17 16 15 15 15 17 16 17 18 18 18 17 16 15 15 15 14 15 17 19 21 23 26 28 30 33 36 39 42 45 48 50
24 24 25 26 26 27 28 28 29 28 28 27 27 25 24 23 22 21 20 20 19 20 18 18 16 17 18 19 19 17 15 14 13 12 10 9 8 9 11 13 16 18 20 22 24 27 30 33 35 38 40 43 45 47
26 26 27 28 28 28 28 29 29 30 29 29 28 27 27 26 26 24 22 20 19 20 18 18 18 18 17 17 16 16 16 14 14 13 12 11 9 10 10 11 12 13 15 18 21 24 27 30 32 35 37 41 44 47
29 30 30 31 31 30 29 30 30 29 29 29 30 30 30 30 26 24 22 22 22 21 19 19 19 20 19 17 16 13 12 11 11 10 8 5 5 7 9 12 15 18 22 25 29 31 33 35 37 39 41 43 45 47
30 30 30 30 30 30 30 29 30 31 31 32 32 33 32 30 28 26 25 24 24 23 22 21 20 18 17 16 17 17 15 13 10 8 7 7 10 13 18 22 25 28 31 33 35 38 41 43 45 47 48 48 50 52
31 31 30 29 30 32 34 33 32 31 31 32 32 32 30 30 29 27 27 26 24 23 22 21 20 21 22 19 17 13 9 6 5 7 10 12 15 19 23 26 30 34 37 39 41 43 45 46 47 47 49 49 50 51
30 29 30 32 33 32 33 35 36 35 34 34 34 33 30 30 29 28 28 27 26 24 24 26 24 21 18 13 9 6 4 4 8 11 15 19 23 26 30 32 35 39 42 43 45 47 47 47 46 46 46 45 46 46
30 31 33 33 34 33 31 32 33 34 34 33 32 32 32 32 30 29 27 27 28 28 25 23 19 15 10 7 4 3 5 8 12 16 19 24 28 32 36 39 42 45 47 49 50 50 48 48 47 46 45 44 44 44
28 30 31 33 34 33 32 31 30 31 32 32 32 31 31 31 30 32 32 30 28 25 21 17 13 10 5 4 3 5 8 12 16 20 23 30 34 37 40 43 46 49 51 51 50 48 48 47 45 43 42 42 42 42
27 28 28 30 30 29 29 29 29 30 31 32 31 30 31 34 37 34 31 26 22 18 16 12 8 8 5 2 4 9 12 17 21 25 29 34 39 42 44 47 49 50 48 48 48 47 45 43 41 41 40 38 38 37
28 28 27 29 30 30 30 30 30 30 30 30 33 37 37 34 32 29 25 21 18 14 10 9 7 3 3 5 10 14 18 22 26 29 35 40 44 46 48 50 50 48 47 47 46 45 42 41 40 39 38 36 35 35
27 28 28 29 30 30 30 29 30 32 36 37 36 34 32 30 27 23 21 17 13 11 7 1 2 4 7 10 14 18 24 28 32 36 42 46 48 50 53 54 51 50 48 47 45 43 41 40 38 37 36 35 35 35
28 28 29 30 31 31 32 34 37 36 33 32 30 28 27 25 23 19 17 13 9 6 4 5 7 9 11 15 19 24 29 34 37 42 47 51 53 55 55 54 52 50 48 46 44 42 40 39 38 37 36 36 36 36
30 31 32 35 37 37 37 35 33 31 30 29 27 25 23 20 18 15 11 7 3 3 5 8 12 15 17 21 26 30 35 40 43 47 51 53 55 56 56 54 52 50 48 46 44 42 40 38 37 36 36 37 37 37
33 34 35 36 36 35 33 31 29 27 26 24 22 20 18 16 13 8 4 1 4 7 11 14 17 20 23 28 31 36 40 44 48 51 55 56 57 57 56 54 52 50 47 44 42 40 38 38 38 38 38 38 38 38
29 30 31 30 30 29 28 27 26 25 24 21 19 16 13 10 6 2 2 6 10 13 17 20 22 25 29 33 37 41 44 48 51 54 56 57 58 58 57 55 52 50 47 45 43 41 40 39 39 39 39 39 39 40
24 26 27 27 28 27 26 25 23 21 20 17 12 10 9 7 6 7 10 13 16 19 22 24 27 31 35 39 40 44 48 51 53 55 57 59 59 59 56 53 51 48 46 44 42 41 41 41 41 41 41 41 40 40
20 21 21 22 21 20 19 20 19 17 16 14 12 11 10 9 11 15 17 19 21 24 26 29 33 36 40 42 43 47 50 53 55 57 59 59 59 56 53 50 48 46 45 44 42 42 43 42 42 42 41 40 39 38
21 21 20 21 22 21 19 16 15 15 14 14 15 16 15 16 18 19 22 24 26 28 31 34 38 41 44 44 45 49 52 55 57 58 59 58 57 54 50 49 47 45 43 43 42 43 42 43 42 41 39 38 38 37
Wind_Direction
243 245 246 248 249 250 251 253 256 258 261 263 264 266 268 271 274 276 279 280 283 284 284 286 290 290 281 282 277 275 269 260 254 246 238 232 227 220 222 224 221 208 207 205 209 212 214 214 213 211 212 209 205 200
241 243 245 246 248 249 251 254 256 257 257 259 262 264 266 270 272 275 279 280 282 281 283 285 285 279 278 278 273 265 263 257 246 240 235 226 218 214 213 212 206 204 201 202 205 208 213 214 211 210 209 207 204 198
239 241 242 243 245 246 248 249 251 253 255 258 259 264 267 271 273 276 278 281 281 280 282 285 279 271 271 281 268 262 253 250 241 234 229 220 216 207 200 203 204 203 202 206 208 211 214 214 212 211 210 207 204 197
237 239 241 241 242 245 246 247 248 251 253 256 259 262 265 268 273 274 274 278 280 282 282 281 273 269 266 273 260 256 248 241 235 230 227 222 215 210 199 198 201 202 205 206 209 214 214 211 211 211 211 210 206 201
235 236 239 240 241 243 244 246 248 250 251 254 257 259 263 266 268 272 273 273 274 282 280 271 267 265 259 263 255 250 241 241 231 226 223 216 212 212 208 202 201 205 208 211 212 216 215 211 210 211 213 211 209 206
233 234 237 238 239 241 243 244 245 247 249 253 255 257 259 261 263 267 270 271 273 275 275 273 264 255 253 254 248 245 242 240 230 225 217 213 210 209 211 210 208 208 213 217 217 218 213 214 213 214 215 215 214 212
231 232 233 235 236 238 239 240 242 243 244 247 249 251 253 255 258 260 264 269 269 268 261 262 257 248 250 248 247 239 236 234 225 219 213 211 210 209 212 212 209 213 220 219 215 214 210 211 212 214 218 218 219 218
226 227 229 229 231 232 233 234 235 238 239 241 243 245 247 248 249 252 260 265 266 265 260 257 257 257 252 248 237 231 223 205 199 198 208 210 212 212 212 213 216 218 220 219 216 216 214 213 215 216 218 221 223 223
217 219 222 224 225 226 227 228 229 230 231 233 234 236 237 238 239 238 242 248 252 252 247 249 248 243 237 227 217 195 179 179 175 184 190 198 207 215 215 220 225 230 224 225 222 218 217 218 219 221 222 223 225 229
207 210 211 213 215 217 219 221 222 222 223 224 225 225 226 225 222 228 228 232 235 235 242 241 237 232 220 205 193 186 181 172 162 161 162 170 186 200 215 221 221 219 216 220 220 219 220 222 223 224 227 229 228 230
199 200 201 204 206 208 209 209 206 206 210 209 210 211 208 209 212 209 212 216 220 222 225 224 231 227 213 197 189 187 180 173 166 163 163 169 173 182 191 200 203 205 209 216 220 221 224 226 228 229 231 232 234 236
193 194 196 196 196 196 195 194 195 199 197 199 195 191 198 197 195 194 193 192 191 192 193 209 218 214 201 191 185 177 170 170 172 173 176 181 185 192 201 210 220 220 223 227 230 231 231 233 235 236 237 238 239 240
185 187 189 189 188 187 186 185 186 186 186 182 182 189 185 182 182 181 167 169 159 166 176 186 184 184 184 175 165 160 153 150 156 160 165 173 182 187 197 208 217 223 226 229 231 234 236 238 240 242 243 244 245 246
177 178 179 181 183 182 177 176 177 175 170 174 179 173 170 170 171 163 161 156 160 165 166 162 159 158 164 160 153 149 151 153 155 161 167 175 184 194 202 208 215 220 225 230 234 236 238 240 241 243 245 246 248 248
168 170 171 171 168 166 167 167 165 165 170 168 164 165 169 165 160 155 155 161 166 166 167 161 159 156 155 151 156 158 159 161 162 169 177 184 196 204 211 219 228 236 240 244 248 250 251 252 253 254 254 255 255 256
157 159 158 157 159 157 157 161 164 164 162 161 168 168 160 156 153 148 160 166 165 165 164 151 153 153 155 159 161 158 157 157 158 163 171 186 206 224 236 243 247 252 257 261 263 264 265 265 265 264 264 264 263 263
150 147 145 146 149 155 159 159 159 162 162 164 161 156 151 153 149 155 163 164 169 150 148 148 148 143 144 147 146 149 156 168 172 175 191 207 223 235 249 255 262 265 266 269 270 272 273 272 271 270 268 268 267 267
141 144 148 150 152 155 159 161 162 160 158 154 153 152 152 150 150 154 156 153 146 146 146 147 147 153 156 160 159 155 150 139 129 122 113 82 23 344 326 316 310 306 304 301 299 297 294 291 289 286 283 280 278 276
145 145 148 151 152 153 154 154 154 154 154 154 154 154 153 150 147 149 151 150 149 151 155 158 159 157 150 138 124 114 104 90 75 49 19 349 331 320 312 310 306 304 301 298 296 294 294 293 291 289 288 287 284 282
146 147 147 149 150 151 145 146 149 150 151 152 151 151 148 145 147 153 151 150 157 158 155 149 142 131 122 111 101 95 90 68 31 356 337 326 319 313 309 311 312 310 308 305 303 300 297 295 293 291 288 286 285 285
144 145 145 144 146 148 154 150 151 153 153 151 152 146 147 149 152 151 151 155 154 148 137 133 125 113 110 107 96 79 56 5 339 333 327 323 321 320 317 315 313 313 312 311 311 308 305 303 300 297 296 294 291 290
143 146 145 148 147 150 155 152 152 152 151 150 148 147 150 152 152 152 151 142 141 138 129 119 117 116 113 118 115 29 9 344 339 334 327 324 324 323 321 319 316 315 314 315 313 311 309 306 305 303 300 298 296 294
145 146 146 147 151 152 149 151 153 154 153 151 149 151 150 150 147 143 142 141 132 128 128 127 126 126 117 84 38 347 336 325 318 320 331 334 329 325 322 319 318 317 317 315 314 311 308 308 306 303 301 299 297 295
142 142 144 145 143 144 148 150 153 152 150 146 147 148 148 148 145 139 135 133 132 133 135 138 137 121 103 60 344 329 327 329 329 330 330 330 328 324 322 320 320 321 319 318 313 312 312 310 307 305 303 302 300 297
141 141 142 142 143 145 150 149 147 144 143 146 146 146 143 138 135 134 134 133 139 149 154 147 160 193 288 326 341 343 337 334 333 331 332 332 330 327 325 324 325 323 322 318 317 317 316 312 310 308 306 304 302 299
144 145 144 146 146 147 146 146 145 144 146 146 144 138 133 135 137 140 143 152 158 158 161 135 333 310 321 329 329 332 338 335 336 337 335 332 330 328 326 328 327 326 324 322 322 320 317 314 312 310 309 307 306 304
146 148 146 145 145 144 142 142 143 145 142 137 136 136 138 141 145 148 153 155 149 132 80 29 357 336 328 327 331 336 336 336 338 336 333 331 330 329 328 329 329 328 325 324 324 322 319 317 315 314 312 310 307 306
148 147 146 144 142 142 143 144 144 141 139 138 142 145 145 146 148 152 149 140 118 35 351 333 327 328 327 330 336 338 338 336 335 333 331 330 329 328 329 329 329 327 326 326 324 322 320 318 317 315 313 312 311 310
145 147 145 144 144 145 146 144 142 142 146 149 152 152 152 155 157 165 165 51 341 338 336 331 329 327 334 336 338 337 335 333 333 331 328 327 327 328 329 329 329 327 326 325 323 322 321 320 318 318 317 315 314 313
145 145 145 147 147 146 146 147 151 154 156 159 163 166 168 170 177 193 308 314 318 327 330 330 330 334 336 337 336 334 331 331 330 327 326 326 327 328 329 329 328 327 326 326 325 324 323 321 321 319 319 318 317 316
152 153 154 155 156 157 159 162 164 169 176 179 184 189 197 211 235 269 290 303 315 320 325 328 332 333 332 331 330 329 329 328 326 326 327 327 328 328 329 329 327 327 326 326 325 324 323 322 322 322 321 320 319 317
160 159 161 163 164 168 176 181 187 193 199 202 208 218 232 251 268 282 295 303 309 316 322 325 327 327 326 326 326 326 326 326 325 326 326 327 328 328 328 328 327 327 327 326 325 325 324 324 323 323 323 322 321 320
176 179 182 186 189 192 198 202 206 210 215 225 233 241 253 264 275 286 295 303 309 314 318 320 321 321 322 323 324 323 325 325 325 325 326 327 327 328 328 328 327 327 326 326 325 326 325 325 325 326 325 325 325 325
Height
10084 10091 10098 10105 10112 10118 10123 10128 10133 10137 10142 10145 10148 10150 10152 10153 10155 10154 10155 10154 10154 10152 10150 10147 10146 10141 10134 10134 10134 10132 10133 10131 10130 10131 10133 10135 10138 10144 10150 10157 10167 10177 10184 10195 10203 10209 10215 10226 10233 10241 10251 10261 10272 10284
10069 10076 10082 10089 10097 10103 10109 10114 10119 10124 10129 10132 10135 10137 10139 10140 10143 10143 10143 10140 10142 10140 10138 10137 10135 10130 10125 10124 10126 10124 10124 10122 10124 10125 10127 10130 10133 10138 10145 10153 10161 10167 10175 10181 10189 10197 10204 10215 10224 10232 10241 10252 10263 10273
10053 10060 10067 10076 10082 10088 10094 10100 10106 10110 10115 10119 10121 10124 10127 10128 10128 10133 10131 10129 10125 10128 10128 10126 10124 10120 10118 10117 10118 10116 10118 10115 10117 10119 10121 10123 10128 10133 10139 10146 10154 10160 10167 10174 10185 10192 10197 10207 10219 10227 10235 10244 10254 10264
10038 10045 10052 10061 10068 10074 10080 10086 10091 10097 10101 10104 10109 10112 10115 10117 10118 10120 10122 10119 10115 10115 10117 10116 10113 10111 10113 10110 10111 10110 10111 10110 10112 10114 10117 10121 10125 10129 10134 10141 10148 10155 10162 10170 10176 10179 10190 10203 10213 10219 10227 10235 10245 10254
10023 10030 10036 10046 10054 10060 10067 10072 10078 10084 10088 10092 10097 10101 10104 10107 10109 10108 10108 10109 10109 10108 10106 10107 10106 10105 10106 10104 10105 10105 10105 10105 10107 10109 10113 10118 10122 10127 10132 10137 10144 10150 10157 10162 10168 10176 10187 10197 10205 10211 10219 10226 10235 10244
10009 10016 10024 10032 10040 10046 10053 10060 10066 10071 10076 10081 10086 10089 10093 10097 10100 10099 10096 10099 10101 10100 10098 10098 10099 10098 10098 10098 10099 10100 10100 10100 10104 10106 10111 10115 10119 10124 10130 10136 10142 10148 10151 10156 10166 10175 10186 10194 10201 10206 10212 10219 10226 10234
9997 10004 10011 10020 10028 10034 10042 10048 10054 10059 10064 10070 10075 10079 10083 10088 10091 10090 10089 10090 10091 10092 10093 10092 10091 10091 10092 10092 10093 10095 10095 10099 10101 10104 10108 10112 10116 10121 10128 10134 10139 10142 10146 10156 10164 10171 10179 10185 10192 10198 10204 10210 10217 10224
9986 9994 10002 10009 10016 10024 10030 10036 10042 10048 10055 10060 10065 10070 10075 10079 10082 10083 10083 10083 10084 10085 10086 10086 10086 10086 10086 10087 10089 10091 10094 10096 10098 10102 10106 10110 10115 10120 10125 10130 10135 10141 10145 10153 10160 10166 10173 10179 10184 10190 10194 10199 10205 10211
9979 9987 9993 10000 10007 10014 10021 10027 10033 10041 10046 10052 10058 10063 10067 10071 10075 10077 10078 10079 10080 10081 10082 10082 10082 10082 10083 10085 10087 10089 10090 10093 10096 10101 10105 10109 10114 10119 10124 10128 10133 10138 10146 10150 10156 10161 10166 10170 10175 10181 10186 10191 10197 10201
9973 9980 9986 9994 10000 10007 10013 10019 10027 10034 10041 10047 10053 10057 10061 10065 10068 10070 10073 10075 10077 10077 10078 10078 10079 10080 10082 10083 10084 10086 10088 10091 10095 10099 10103 10107 10113 10118 10124 10128 10131 10135 10139 10141 10147 10152 10156 10161 10166 10172 10177 10181 10186 10190
9969 9976 9982 9988 9994 10001 10007 10015 10023 10030 10034 10040 10045 10051 10056 10059 10063 10066 10069 10072 10073 10074 10075 10076 10078 10080 10081 10082 10083 10084 10087 10091 10093 10097 10101 10105 10109 10114 10118 10121 10125 10129 10133 10138 10141 10144 10148 10153 10157 10161 10166 10169 10173 10177
9966 9973 9979 9985 9991 9998 10005 10012 10018 10022 10030 10035 10042 10047 10051 10056 10060 10064 10067 10068 10070 10072 10073 10075 10077 10079 10079 10081 10083 10085 10088 10092 10094 10097 10101 10104 10108 10112 10116 10120 10124 10128 10131 10134 10138 10141 10143 10146 10148 10151 10154 10157 10160 10162
9964 9971 9977 9983 9989 9996 10002 10009 10014 10021 10027 10033 10039 10043 10049 10054 10058 10062 10064 10066 10068 10070 10073 10076 10077 10078 10079 10082 10085 10088 10091 10093 10096 10100 10103 10107 10110 10112 10116 10118 10121 10123 10126 10128 10130 10133 10135 10137 10139 10141 10142 10144 10146 10148
9964 9970 9976 9982 9989 9995 10002 10007 10013 10018 10026 10032 10037 10042 10048 10052 10056 10060 10063 10065 10068 10071 10073 10075 10077 10079 10081 10084 10087 10090 10092 10095 10098 10101 10104 10107 10109 10111 10113 10116 10118 10120 10121 10123 10124 10125 10127 10128 10129 10130 10130 10131 10131 10131
9965 9971 9977 9983 9989 9995 10000 10006 10013 10019 10024 10031 10037 10042 10046 10051 10056 10059 10062 10065 10068 10070 10073 10075 10079 10082 10084 10086 10089 10091 10093 10096 10099 10102 10105 10107 10110 10112 10113 10115 10116 10117 10118 10119 10120 10121 10121 10121 10121 10121 10121 10120 10120 10120
9967 9973 9978 9984 9989 9995 10001 10007 10012 10019 10025 10032 10037 10043 10047 10052 10056 10060 10063 10066 10069 10072 10076 10079 10082 10085 10088 10090 10093 10096 10098 10100 10102 10104 10106 10108 10110 10111 10113 10114 10115 10116 10116 10116 10116 10115 10114 10113 10112 10110 10109 10107 10106 10104
9970 9976 9981 9987 9992 9998 10003 10009 10015 10020 10026 10032 10038 10044 10048 10053 10057 10061 10065 10069 10072 10075 10079 10082 10085 10087 10090 10093 10095 10098 10100 10103 10105 10107 10110 10111 10112 10113 10113 10113 10112 10112 10110 10109 10108 10106 10104 10102 10099 10097 10094 10092 10089 10086
9974 9978 9983 9988 9994 10000 10005 10010 10017 10023 10029 10035 10040 10045 10049 10054 10058 10064 10068 10071 10075 10078 10082 10085 10088 10091 10094 10096 10099 10102 10104 10106 10108 10109 10110 10111 10111 10110 10110 10109 10108 10106 10104 10101 10098 10095 10091 10088 10085 10081 10077 10074 10071 10068
9978 9983 9988 9993 9998 10003 10008 10015 10021 10026 10032 10037 10042 10047 10052 10056 10061 10066 10071 10074 10078 10082 10086 10089 10092 10095 10097 10100 10102 10104 10105 10106 10107 10108 10109 10109 10109 10108 10106 10104 10102 10099 10096 10092 10088 10084 10080 10075 10070 10065 10061 10057 10052 10048
9983 9987 9993 9998 10004 10009 10013 10019 10025 10031 10037 10041 10045 10051 10056 10060 10065 10070 10074 10078 10082 10086 10089 10092 10095 10098 10100 10102 10103 10105 10106 10107 10107 10108 10107 10106 10105 10104 10101 10098 10094 10090 10085 10081 10076 10070 10065 10059 10054 10049 10044 10038 10034 10029
9989 9994 9999 10004 10009 10014 10019 10023 10029 10035 10039 10044 10049 10054 10059 10063 10069 10073 10078 10082 10086 10089 10092 10096 10097 10099 10102 10104 10105 10107 10108 10108 10107 10106 10105 10103 10100 10097 10093 10090 10085 10079 10073 10067 10061 10054 10047 10041 10035 10029 10024 10019 10014 10009
9994 9999 10003 10009 10014 10020 10025 10029 10034 10039 10044 10048 10053 10057 10062 10067 10072 10077 10081 10085 10090 10092 10095 10097 10100 10102 10104 10106 10107 10108 10108 10107 10105 10104 10102 10098 10094 10090 10085 10079 10073 10067 10060 10054 10045 10038 10031 10024 10018 10012 10006 10001 9996 9991
10004 10007 10011 10015 10020 10025 10029 10034 10039 10043 10047 10052 10056 10061 10066 10071 10076 10081 10085 10089 10092 10095 10097 10100 10103 10105 10106 10107 10107 10107 10105 10104 10102 10100 10096 10092 10087 10082 10076 10070 10063 10056 10049 10040 10032 10024 10017 10010 10004 9998 9992 9987 9981 9976
10011 10014 10018 10022 10026 10030 10035 10040 10044 10048 10052 10056 10061 10066 10070 10075 10080 10084 10088 10092 10095 10098 10101 10103 10105 10106 10106 10106 10105 10104 10102 10100 10096 10093 10088 10083 10079 10073 10066 10059 10051 10044 10035 10027 10018 10010 10003 9996 9990 9983 9978 9973 9968 9963
10019 10022 10025 10027 10031 10036 10041 10045 10049 10053 10057 10062 10066 10071 10076 10079 10083 10087 10091 10095 10098 10101 10102 10104 10104 10105 10104 10103 10102 10100 10097 10094 10090 10086 10081 10075 10069 10062 10054 10046 10038 10030 10022 10013 10004 9997 9990 9983 9976 9970 9965 9959 9954 9950
10025 10028 10031 10034 10037 10041 10046 10050 10054 10058 10063 10067 10072 10075 10078 10082 10087 10091 10095 10098 10100 10102 10103 10104 10104 10103 10102 10100 10098 10095 10091 10087 10082 10077 10071 10065 10058 10051 10042 10033 10025 10016 10007 9999 9991 9984 9977 9971 9964 9958 9953 9947 9942 9937
10029 10033 10036 10039 10043 10047 10051 10055 10060 10065 10069 10071 10075 10079 10083 10086 10090 10094 10097 10099 10101 10102 10102 10102 10101 10100 10098 10095 10092 10088 10084 10079 10074 10068 10062 10054 10046 10038 10029 10020 10012 10003 9995 9987 9980 9972 9965 9959 9953 9947 9941 9936 9931 9926
10034 10037 10041 10044 10048 10053 10057 10062 10066 10069 10072 10075 10079 10083 10086 10090 10093 10096 10098 10099 10100 10100 10100 10099 10098 10095 10092 10088 10084 10080 10076 10071 10065 10059 10051 10043 10035 10026 10017 10008 10000 9991 9983 9976 9968 9961 9954 9948 9942 9936 9930 9925 9919 9913
10039 10043 10046 10049 10053 10058 10062 10065 10068 10072 10076 10079 10083 10086 10089 10091 10094 10095 10096 10096 10097 10096 10095 10094 10092 10088 10084 10080 10076 10072 10068 10062 10055 10048 10040 10032 10023 10014 10006 9997 9989 9980 9972 9965 9958 9951 9944 9938 9932 9926 9920 9914 9908 9902
10044 10048 10051 10055 10058 10061 10065 10068 10071 10075 10078 10082 10085 10087 10090 10091 10092 10092 10093 10093 10093 10092 10090 10087 10084 10081 10077 10072 10068 10064 10058 10052 10045 10038 10029 10021 10012 10003 9994 9986 9977 9969 9961 9953 9946 9940 9933 9927 9921 9915 9909 9903 9897 9891
10049 10052 10054 10057 10061 10064 10067 10070 10073 10076 10080 10083 10085 10087 10088 10088 10089 10090 10090 10089 10088 10086 10083 10080 10077 10073 10069 10065 10060 10055 10049 10043 10035 10027 10018 10010 10001 9993 9983 9975 9967 9959 9951 9944 9937 9930 9923 9917 9911 9905 9899 9892 9886 9880
10051 10053 10056 10059 10062 10066 10069 10071 10074 10077 10079 10081 10083 10084 10085 10085 10085 10085 10084 10083 10081 10079 10076 10072 10069 10065 10061 10057 10051 10045 10039 10032 10024 10015 10007 9999 9990 9982 9974 9966 9958 9949 9942 9934 9927 9920 9914 9907 9901 9895 9888 9882 9876 9870
10051 10054 10057 10060 10063 10066 10069 10071 10074 10075 10077 10078 10079 10080 10081 10081 10080 10079 10077 10076 10073 10071 10068 10064 10061 10057 10052 10047 10041 10035 10028 10020 10012 10004 9996 9988 9980 9972 9964 9956 9948 9940 9933 9926 9919 9912 9905 9899 9892 9885 9879 9872 9866 9861